Regional Weather Roundup
Issued by NWS

Home | Current Version | Previous Version | Text Only | Print | Product List | Glossary Off
Versions: 1 2 3 4 5 6 7 8 9 10 11 12 13 14 15 16 17 18 19 20 21 22 23 24 25 26 27 28 29 30 31 32 33 34 35 36 37 38 39 40 41 42 43 44 45 46 47 48 49 50

000
ASUS43 KLOT 010409
RWRIL

ILLINOIS REGIONAL WEATHER ROUNDUP
NATIONAL WEATHER SERVICE CHICAGO/ROMEOVILLE IL
1100 PM CDT FRI SEP 30 2016

NOTE: "FAIR" INDICATES FEW OR NO CLOUDS BELOW 12,000 FEET WITH NO
SIGNIFICANT WEATHER AND/OR OBSTRUCTIONS TO VISIBILITY.

* THESE STATIONS ARE NOT UNDER NWS QUALITY CONTROL. THEY ALSO MAY NOT
  REPORT WEATHER SUCH AS PRECIPITATION OR FOG.

ILZ001-002-007-009-015-016-024-010500-
NORTHWEST ILLINOIS

CITY           SKY/WX    TMP DP  RH WIND       PRES   REMARKS
MOLINE         CLOUDY    62  58  86 N5        30.09F
STERLING*      LGT RAIN  60  58  92 N7        30.09S
SAVANNA*       CLOUDY    60  58  92 N6        30.10F
$$

ILZ003-004-008-010-011-017-018-010500-
NORTH CENTRAL ILLINOIS

CITY           SKY/WX    TMP DP  RH WIND       PRES   REMARKS
ROCKFORD       LGT RAIN  61  58  90 N10       30.09F FOG
FREEPORT*      CLOUDY    59  56  89 N6        30.11F
ROCHELLE*      LGT RAIN  59  59  99 N7        30.08S
DE KALB*       CLOUDY    60  60  98 NE6       30.07S FOG
$$

ILZ005-006-012>014-019>023-010500-
NORTHEAST ILLINOIS

CITY           SKY/WX    TMP DP  RH WIND       PRES   REMARKS
CHICAGO-OHARE  CLOUDY    62  58  86 NE9       30.05S
CHICAGO-MIDWAY CLOUDY    63  57  81 E14       30.04F
AURORA         CLOUDY    62  59  90 N6        30.06S
LANSING*       CLOUDY    60  60  99 NE5       30.04S
JOLIET*        CLOUDY    63  59  88 NE6       30.04F
WAUKEGAN       LGT RAIN  61  59  93 E8        30.06S
DUPAGE AIRPORT CLOUDY    61  58  90 NE8       30.05S
KANKAKEE*      CLOUDY    60  59  97 CALM      30.04S
WHEELING       CLOUDY    62  58  86 NE5       30.07S
MORRIS*        CLOUDY    62  58  87 CALM      30.04S
ROMEOVILLE*    CLOUDY    61  60  96 E7        30.05S
NORTHERLY ISL    N/A     61  57  87 NE15        N/A
$$

LMZ740>746-010500-
SOUTHERN LAKE MICHIGAN

STATION/POSITION SKY/WX   TEMP    WIND        PRES    VSBY  WAVE
                          AIR SEA DIR/SP/G                  HT/PER
                          (F)     (DEG/KT/KT) (MB)    (MI)  (FT/S)
SOUTHERN BUOY              63 67   80/ 17/ 21 1017.7R         4/ 6
WILMETTE HARBOR            61 59  100/ 10/ 12   N/A           4/ 6
HARRISON CRIB              63      80/ 18/ 20   N/A
BURNHAM HARBOR             61      50/  8/ 14   N/A
CALUMET HARBOR             61      40/  7/ 10 1017.0R
BURNS HARBOR               62      80/ 13/ 16 1017.6R
MICHIGAN CITY              60      40/  9/ 10   N/A
MICHIGAN CITY 6N           61 64   70/ 12/ 16   N/A           4/ 6
ST. JOSEPH                 57 50   80/  4/  8 1018.1          3/ 6
$$

ILZ025>027-034>036-040-047-049-050-058-095>099-010500-
WEST-CENTRAL ILLINOIS

CITY           SKY/WX    TMP DP  RH WIND       PRES   REMARKS
QUINCY         CLOUDY    61  58  90 NW10      30.08F
GALESBURG*     CLOUDY    60  58  93 N8        30.08S
MACOMB*        CLOUDY    61  59  95 N7        30.09F
JACKSONVILLE*  CLOUDY    61  60  96 NW3       30.05S
PITTSFIELD*    CLOUDY    61  60  94 NW8       30.08S
$$

ILZ028>032-037-038-041>044-048-051>054-059>061-010500-
CENTRAL ILLINOIS

CITY           SKY/WX    TMP DP  RH WIND       PRES   REMARKS
PONTIAC        CLOUDY    62  62 100 N7        30.04S
BLOOMINGTON    CLOUDY    60  59  96 N8        30.04S
DECATUR        CLOUDY    63  60  90 N8        30.01S
PEORIA         CLOUDY    62  61  96 N8        30.05S
LACON*         CLOUDY    61  59  93 N5        30.04F
LINCOLN*       LGT RAIN  62  62  99 N6        30.03S
SPRINGFIELD    LGT RAIN  62  61  96 N8        30.03F FOG
TAYLORVILLE    CLOUDY    61  61  99 NW6       30.02S FOG
$$

ILZ033-039-045-046-055>057-062-063-010500-
EAST-CENTRAL ILLINOIS

CITY           SKY/WX    TMP DP  RH WIND       PRES   REMARKS
CHAMPAIGN      CLOUDY    62  60  93 NE8       30.01R
RANTOUL*       CLOUDY    63  62  96 NE7       30.01R
MATTOON        RAIN      59  57  93 CALM      30.00R
PARIS*         CLOUDY    59  59 100 CALM      30.00F
$$

ILZ079-100>102-010500-
SOUTHWEST ILLINOIS

CITY           SKY/WX    TMP DP  RH WIND       PRES   REMARKS
ALTON          CLOUDY    61  60  96 NW6       30.04S
BELLEVILLE     PTCLDY    61  61 100 NW8       30.02S
CAHOKIA*       CLOUDY    63  60  90 NW8       30.04S
SPARTA*        CLOUDY    61  60  97 NW5       30.04F
$$

ILZ064>066-069>071-074>076-080>082-084>086-088>090-092>094-010500-
SOUTH-CENTRAL ILLINOIS

CITY           SKY/WX    TMP DP  RH WIND       PRES   REMARKS
CARBONDALE     CLOUDY    61  61 100 W6        30.02S
CAIRO*         CLOUDY    61  60  96 W3        30.04R
EFFINGHAM*     RAIN      62  62 100 NW6       30.01S
MARION         CLOUDY    63  63 100 NW3       30.02S
MT. VERNON     CLOUDY    63  55  77 CALM      30.01S
CENTRALIA*     CLOUDY    63  62  99 NW5       30.01S FOG
SALEM*         RAIN      63  61  93 CALM      30.01S
METROPOLIS*    CLOUDY    62  61  96 W5        30.03S
$$

ILZ067-068-072-073-078-083-087-091-010500-
SOUTHEAST ILLINOIS

CITY           SKY/WX    TMP DP  RH WIND       PRES   REMARKS
LAWRENCEVILLE  CLOUDY    58  56  93 E3        30.01R
FLORA*         CLOUDY    63  61  95 NW6       30.00S
FAIRFIELD*       N/A     59  59 100 CALM      30.00R
HARRISBURG*    PTCLDY    56  56 100 CALM      30.01S
ROBINSON*      MOCLDY    55  55  99 CALM      30.02R
CARMI*         CLOUDY    55  55 100 CALM      30.00R
$$

ABBREVIATIONS USED IN REMARKS
   TC - TEMPERATURE IN CELSIUS
  WCI - WIND CHILL INDEX
   HX - HEAT INDEX
  VSB - VISIBILITY
$$





USA.gov is the U.S. government's official web portal to all federal, state and local government web resources and services.